SPBCG EPKK-EPKK

Flight info

Callsign SPBCG
Flight time 1h 23m
Altitude 2000
Route DCT
Aircraft C172/L-V/N

Departure

Time 2026-05-04 21:15
Airport Kraków John Paul II International Airport (EPKK)

Arrival

Time 2026-05-04 22:38
Airport Kraków John Paul II International Airport (EPKK)
Time Latitude Longitude Altitude Speed Heading
2026-05-04 20:59 50.07704 19.80161 785 ft 0 kts 348°
2026-05-04 21:11 50.07705 19.80161 703 ft 1 kts 347°
2026-05-04 21:12 50.07745 19.80151 785 ft 10 kts 12°
2026-05-04 21:12 50.07770 19.80291 785 ft 16 kts 75°
2026-05-04 21:12 50.07854 19.80332 786 ft 17 kts 346°
2026-05-04 21:12 50.07986 19.80287 784 ft 22 kts 339°
2026-05-04 21:13 50.08007 19.80156 785 ft 0 kts 261°
2026-05-04 21:14 50.08005 19.80138 785 ft 13 kts 258°
2026-05-04 21:14 50.07951 19.79749 785 ft 59 kts 257°
2026-05-04 21:14 50.07842 19.78952 811 ft 86 kts 253°
2026-05-04 21:14 50.07715 19.78059 1007 ft 84 kts 254°
2026-05-04 21:15 50.07605 19.77144 1194 ft 87 kts 254°
2026-05-04 21:15 50.07467 19.76208 1368 ft 92 kts 253°
2026-05-04 21:15 50.07351 19.75578 1525 ft 90 kts 253°
2026-05-04 21:15 50.07182 19.74664 1625 ft 92 kts 233°
2026-05-04 21:16 50.06562 19.74471 1647 ft 102 kts 173°
2026-05-04 21:16 50.05657 19.74824 1850 ft 103 kts 169°
2026-05-04 21:16 50.05186 19.75033 1934 ft 104 kts 168°
2026-05-04 21:16 50.04472 19.75312 2032 ft 107 kts 172°
2026-05-04 21:17 50.03826 19.75889 2069 ft 118 kts 123°
2026-05-04 21:17 50.03800 19.77182 2085 ft 127 kts 79°
2026-05-04 21:17 50.04073 19.78487 2087 ft 130 kts 66°
2026-05-04 21:17 50.04489 19.79737 2082 ft 135 kts 51°
2026-05-04 21:18 50.05252 19.80569 2061 ft 132 kts 18°
2026-05-04 21:18 50.06024 19.80276 2012 ft 119 kts 293°
2026-05-04 21:18 50.05799 19.79227 1949 ft 113 kts 201°
2026-05-04 21:18 50.05008 19.79165 1968 ft 112 kts 212°
2026-05-04 21:19 50.04835 19.78184 1988 ft 114 kts 307°
2026-05-04 21:19 50.05622 19.78087 1937 ft 130 kts 39°
2026-05-04 21:19 50.05757 19.79395 1978 ft 126 kts 119°
2026-05-04 21:19 50.05119 19.80089 2073 ft 114 kts 176°
2026-05-04 21:20 50.04431 19.79700 2080 ft 110 kts 234°
2026-05-04 21:20 50.04411 19.78534 2081 ft 118 kts 300°
2026-05-04 21:20 50.05094 19.77939 2079 ft 119 kts
2026-05-04 21:20 50.05737 19.78652 2091 ft 123 kts 70°
2026-05-04 21:21 50.05629 19.79923 2090 ft 122 kts 136°
2026-05-04 21:21 50.04897 19.80324 2090 ft 111 kts 196°
2026-05-04 21:21 50.04300 19.79685 2094 ft 109 kts 245°
2026-05-04 21:21 50.04387 19.78492 2078 ft 118 kts 300°
2026-05-04 21:22 50.05096 19.77988 2082 ft 120 kts
2026-05-04 21:22 50.05698 19.78777 2092 ft 122 kts 74°
2026-05-04 21:22 50.05560 19.80084 2089 ft 126 kts 121°
2026-05-04 21:22 50.04923 19.80812 2073 ft 113 kts 182°
2026-05-04 21:23 50.04324 19.80207 2082 ft 109 kts 251°
2026-05-04 21:23 50.04514 19.79093 2086 ft 120 kts 314°
2026-05-04 21:23 50.05316 19.78837 2082 ft 128 kts 18°
2026-05-04 21:23 50.05923 19.79820 1882 ft 131 kts 75°
2026-05-04 21:24 50.06201 19.81121 1805 ft 124 kts 76°
2026-05-04 21:24 50.06487 19.82305 1751 ft 117 kts 70°
2026-05-04 21:24 50.06766 19.83502 1722 ft 115 kts 64°
2026-05-04 21:24 50.07482 19.83922 1397 ft 117 kts 339°
2026-05-04 21:25 50.08099 19.83266 1333 ft 101 kts 310°
2026-05-04 21:25 50.08270 19.82266 1141 ft 101 kts 263°
2026-05-04 21:25 50.08143 19.81196 1014 ft 104 kts 257°
2026-05-04 21:25 50.08001 19.80092 868 ft 105 kts 255°
2026-05-04 21:26 50.07860 19.79085 796 ft 84 kts 257°
2026-05-04 21:26 50.07725 19.78173 909 ft 89 kts 253°
2026-05-04 21:26 50.07563 19.77209 1052 ft 95 kts 253°
2026-05-04 21:26 50.07395 19.76204 1187 ft 100 kts 254°
2026-05-04 21:27 50.07208 19.75122 1309 ft 105 kts 252°
2026-05-04 21:27 50.06702 19.74451 1421 ft 102 kts 181°
2026-05-04 21:27 50.06005 19.74726 1557 ft 105 kts 165°
2026-05-04 21:27 50.05536 19.75601 1653 ft 118 kts 99°
2026-05-04 21:28 50.05637 19.76849 1791 ft 115 kts 88°
2026-05-04 21:28 50.05756 19.78094 1919 ft 119 kts 83°
2026-05-04 21:28 50.05747 19.79388 2054 ft 121 kts 122°
2026-05-04 21:28 50.05062 19.80031 2089 ft 120 kts 184°
2026-05-04 21:29 50.04386 19.79408 2098 ft 117 kts 233°
2026-05-04 21:29 50.03925 19.78325 2071 ft 119 kts 249°
2026-05-04 21:29 50.04088 19.77126 2091 ft 123 kts 312°
2026-05-04 21:29 50.04896 19.76795 2082 ft 128 kts 16°
2026-05-04 21:30 50.05489 19.77719 2082 ft 120 kts 71°
2026-05-04 21:30 50.05839 19.78923 2089 ft 129 kts 68°
2026-05-04 21:30 50.06152 19.80240 2046 ft 130 kts 71°
2026-05-04 21:30 50.06442 19.81589 1903 ft 131 kts 72°
2026-05-04 21:31 50.07040 19.84239 1563 ft 126 kts 71°
2026-05-04 21:31 50.07688 19.84983 1435 ft 119 kts 351°
2026-05-04 21:31 50.08353 19.84428 1405 ft 97 kts 299°
2026-05-04 21:32 50.08430 19.83493 1220 ft 89 kts 260°
2026-05-04 21:32 50.08327 19.82492 1123 ft 96 kts 255°
2026-05-04 21:32 50.08190 19.81425 1057 ft 105 kts 257°
2026-05-04 21:32 50.08026 19.80253 873 ft 113 kts 254°
2026-05-04 21:33 50.07861 19.79092 787 ft 105 kts 254°
2026-05-04 21:33 50.07695 19.77996 910 ft 103 kts 253°
2026-05-04 21:33 50.07557 19.76927 1092 ft 101 kts 255°
2026-05-04 21:33 50.07399 19.75845 1205 ft 104 kts 255°
2026-05-04 21:34 50.07228 19.74730 1313 ft 106 kts 253°
2026-05-04 21:34 50.06710 19.74036 1392 ft 105 kts 184°
2026-05-04 21:34 50.05997 19.74262 1521 ft 105 kts 167°
2026-05-04 21:34 50.05567 19.75167 1582 ft 117 kts 98°
2026-05-04 21:35 50.05713 19.76423 1682 ft 117 kts 81°
2026-05-04 21:35 50.05860 19.77667 1803 ft 117 kts 81°
2026-05-04 21:35 50.05990 19.78965 1873 ft 126 kts 92°
2026-05-04 21:35 50.05600 19.80083 1891 ft 121 kts 155°
2026-05-04 21:36 50.04799 19.80323 1884 ft 116 kts 194°
2026-05-04 21:36 50.04165 19.79653 1889 ft 116 kts 246°
2026-05-04 21:36 50.04278 19.78456 1893 ft 122 kts 306°
2026-05-04 21:36 50.05008 19.77709 1875 ft 134 kts 342°
2026-05-04 21:37 50.05881 19.78117 1888 ft 139 kts 43°
2026-05-04 21:37 50.06188 19.79464 1883 ft 131 kts 102°
2026-05-04 21:37 50.05679 19.80516 1889 ft 126 kts 149°
2026-05-04 21:37 50.04877 19.80989 1881 ft 124 kts 189°
2026-05-04 21:38 50.04258 19.80221 1879 ft 122 kts 249°
2026-05-04 21:38 50.04406 19.78978 1886 ft 122 kts 304°
2026-05-04 21:38 50.05157 19.78397 1890 ft 125 kts 343°
2026-05-04 21:38 50.05897 19.77805 1889 ft 126 kts
2026-05-04 21:39 50.06089 19.79014 1589 ft 143 kts 122°
2026-05-04 21:39 50.05584 19.80133 1843 ft 118 kts 140°
2026-05-04 21:39 50.04873 19.80405 1881 ft 107 kts 205°
2026-05-04 21:39 50.04485 19.79467 1892 ft 112 kts 261°
2026-05-04 21:40 50.04714 19.78333 1887 ft 119 kts 316°
2026-05-04 21:40 50.05521 19.78156 1890 ft 129 kts 19°
2026-05-04 21:40 50.06078 19.79206 1885 ft 132 kts 82°
2026-05-04 21:40 50.05811 19.80462 1883 ft 127 kts 142°
2026-05-04 21:41 50.05015 19.80703 1887 ft 116 kts 205°
2026-05-04 21:41 50.04441 19.79876 1884 ft 115 kts 241°
2026-05-04 21:41 50.04518 19.78684 1882 ft 120 kts 305°
2026-05-04 21:41 50.05299 19.78253 1877 ft 130 kts
2026-05-04 21:42 50.05986 19.79117 1880 ft 134 kts 72°
2026-05-04 21:42 50.05897 19.80458 1885 ft 129 kts 127°
2026-05-04 21:42 50.05163 19.81017 1890 ft 121 kts 187°
2026-05-04 21:42 50.04517 19.80304 1885 ft 118 kts 242°
2026-05-04 21:43 50.04448 19.79060 1891 ft 121 kts 293°
2026-05-04 21:43 50.05069 19.78201 1888 ft 125 kts 338°
2026-05-04 21:43 50.05920 19.78462 1896 ft 134 kts 37°
2026-05-04 21:43 50.06312 19.79690 1879 ft 127 kts 97°
2026-05-04 21:44 50.05869 19.80805 1873 ft 122 kts 154°
2026-05-04 21:44 50.05109 19.81357 1842 ft 121 kts 179°
2026-05-04 21:44 50.04402 19.80793 1777 ft 120 kts 238°
2026-05-04 21:44 50.04402 19.79486 1706 ft 129 kts 293°
2026-05-04 21:45 50.05088 19.78665 1689 ft 130 kts 348°
2026-05-04 21:45 50.05921 19.79134 1684 ft 134 kts 50°
2026-05-04 21:45 50.06129 19.80466 1685 ft 131 kts 108°
2026-05-04 21:45 50.05539 19.81357 1687 ft 120 kts 172°
2026-05-04 21:46 50.04801 19.80942 1691 ft 118 kts 232°
2026-05-04 21:46 50.04752 19.79738 1691 ft 122 kts 297°
2026-05-04 21:46 50.05381 19.78838 1688 ft 128 kts 338°
2026-05-04 21:46 50.06231 19.79056 1689 ft 129 kts 40°
2026-05-04 21:47 50.06513 19.80265 1683 ft 121 kts 103°
2026-05-04 21:47 50.06017 19.81141 1679 ft 107 kts 169°
2026-05-04 21:47 50.05402 19.80758 1677 ft 100 kts 239°
2026-05-04 21:47 50.05122 19.79786 1695 ft 101 kts 265°
2026-05-04 21:48 50.05724 19.79547 1611 ft 124 kts 47°
2026-05-04 21:48 50.06116 19.80740 1596 ft 122 kts 70°
2026-05-04 21:48 50.06409 19.81929 1593 ft 121 kts 70°
2026-05-04 21:48 50.06661 19.83213 1473 ft 120 kts 76°
2026-05-04 21:49 50.06873 19.84385 1351 ft 110 kts 78°
2026-05-04 21:49 50.07132 19.85480 1340 ft 111 kts 61°
2026-05-04 21:49 50.07856 19.85618 1297 ft 115 kts 337°
2026-05-04 21:49 50.08429 19.84945 1352 ft 98 kts 278°
2026-05-04 21:50 50.08466 19.83853 1258 ft 104 kts 264°
2026-05-04 21:50 50.08357 19.82751 1203 ft 103 kts 257°
2026-05-04 21:50 50.08205 19.81625 1086 ft 108 kts 257°
2026-05-04 21:50 50.08062 19.80548 919 ft 98 kts 256°
2026-05-04 21:51 50.07922 19.79545 803 ft 92 kts 256°
2026-05-04 21:51 50.07788 19.78598 901 ft 91 kts 255°
2026-05-04 21:51 50.07657 19.77698 1187 ft 78 kts 250°
2026-05-04 21:51 50.07535 19.76742 1239 ft 96 kts 266°
2026-05-04 21:52 50.07494 19.75691 1386 ft 99 kts 255°
2026-05-04 21:52 50.06970 19.75113 1504 ft 101 kts 183°
2026-05-04 21:52 50.06297 19.75251 1624 ft 102 kts 154°
2026-05-04 21:52 50.06034 19.76295 1684 ft 116 kts 88°
2026-05-04 21:53 50.05931 19.77530 1683 ft 121 kts 115°
2026-05-04 21:53 50.05631 19.78786 1684 ft 126 kts 114°
2026-05-04 21:53 50.05361 19.80084 1686 ft 126 kts 110°
2026-05-04 21:53 50.05015 19.81322 1657 ft 124 kts 133°
2026-05-04 21:54 50.04641 19.82482 1662 ft 127 kts 94°
2026-05-04 21:54 50.04790 19.83858 1664 ft 130 kts 92°
2026-05-04 21:54 50.04804 19.85266 1695 ft 133 kts 89°
2026-05-04 21:54 50.04846 19.86713 1693 ft 135 kts 92°
2026-05-04 21:55 50.04920 19.88193 1650 ft 139 kts 90°
2026-05-04 21:55 50.04967 19.89695 1682 ft 139 kts 91°
2026-05-04 21:55 50.05027 19.91209 1674 ft 140 kts 90°
2026-05-04 21:55 50.05078 19.92683 1673 ft 134 kts 89°
2026-05-04 21:56 50.05120 19.94118 1681 ft 133 kts 90°
2026-05-04 21:56 50.05160 19.95572 1729 ft 134 kts 90°
2026-05-04 21:56 50.05219 19.96992 1862 ft 131 kts 91°
2026-05-04 21:56 50.05285 19.98440 1873 ft 135 kts 90°
2026-05-04 21:57 50.05342 19.99868 1877 ft 137 kts 92°
2026-05-04 21:57 50.05403 20.01375 1863 ft 138 kts 90°
2026-05-04 21:57 50.05442 20.02863 1866 ft 137 kts 90°
2026-05-04 21:57 50.05481 20.04322 1874 ft 132 kts 89°
2026-05-04 21:58 50.05391 20.05726 1873 ft 128 kts 104°
2026-05-04 21:58 50.05257 20.07129 1887 ft 132 kts 103°
2026-05-04 21:58 50.05283 20.08574 1867 ft 133 kts 86°
2026-05-04 21:58 50.05256 20.09992 1865 ft 131 kts 116°
2026-05-04 21:59 50.04863 20.10650 1866 ft 125 kts 156°
2026-05-04 21:59 50.04062 20.10539 1873 ft 119 kts 218°
2026-05-04 21:59 50.03559 20.09576 1877 ft 116 kts 253°
2026-05-04 21:59 50.03767 20.08376 1884 ft 128 kts 313°
2026-05-04 22:00 50.04896 20.07875 1884 ft 136 kts 11°
2026-05-04 22:00 50.05594 20.08780 1880 ft 135 kts 70°
2026-05-04 22:00 50.05493 20.10143 1875 ft 127 kts 129°
2026-05-04 22:00 50.05089 20.10784 1876 ft 126 kts 150°
2026-05-04 22:01 50.04264 20.10810 1883 ft 125 kts 210°
2026-05-04 22:01 50.03836 20.09709 1896 ft 117 kts 258°
2026-05-04 22:01 50.04136 20.08557 1882 ft 129 kts 322°
2026-05-04 22:01 50.04990 20.08064 1878 ft 137 kts 350°
2026-05-04 22:02 50.05887 20.07615 1863 ft 132 kts 344°
2026-05-04 22:02 50.06789 20.07509 1863 ft 133 kts 341°
2026-05-04 22:02 50.07344 20.06500 1865 ft 124 kts 277°
2026-05-04 22:02 50.07123 20.05261 1873 ft 119 kts 245°
2026-05-04 22:03 50.06898 20.04020 1878 ft 122 kts 262°
2026-05-04 22:03 50.06843 20.02695 1872 ft 121 kts 263°
2026-05-04 22:03 50.06833 20.01385 1883 ft 122 kts 272°
2026-05-04 22:03 50.06901 20.00044 1873 ft 124 kts 271°
2026-05-04 22:04 50.06972 19.98730 1886 ft 122 kts 271°
2026-05-04 22:04 50.07044 19.97375 1884 ft 128 kts 271°
2026-05-04 22:04 50.07127 19.96016 1877 ft 121 kts 270°
2026-05-04 22:04 50.07127 19.94732 1878 ft 117 kts 266°
2026-05-04 22:05 50.07133 19.93430 1880 ft 121 kts 266°
2026-05-04 22:05 50.07141 19.92128 1743 ft 118 kts 268°
2026-05-04 22:05 50.07157 19.90875 1673 ft 116 kts 268°
2026-05-04 22:05 50.07181 19.89591 1596 ft 122 kts 269°
2026-05-04 22:06 50.07227 19.88262 1574 ft 121 kts 271°
2026-05-04 22:06 50.07256 19.87012 1695 ft 115 kts 265°
2026-05-04 22:06 50.07297 19.85765 1540 ft 121 kts 275°
2026-05-04 22:06 50.07584 19.84512 1448 ft 115 kts 293°
2026-05-04 22:07 50.07942 19.83464 1295 ft 111 kts 291°
2026-05-04 22:07 50.08147 19.82304 1141 ft 113 kts 276°
2026-05-04 22:07 50.08130 19.81087 980 ft 114 kts 259°
2026-05-04 22:07 50.07978 19.79931 827 ft 104 kts 257°
2026-05-04 22:08 50.07835 19.78913 788 ft 89 kts 256°
2026-05-04 22:08 50.07702 19.77944 873 ft 90 kts 255°
2026-05-04 22:08 50.07571 19.77001 985 ft 89 kts 257°
2026-05-04 22:08 50.07443 19.76049 1111 ft 89 kts 257°
2026-05-04 22:09 50.07433 19.75112 1222 ft 90 kts 301°
2026-05-04 22:09 50.07998 19.74752 1361 ft 90 kts 344°
2026-05-04 22:09 50.08614 19.74604 1491 ft 90 kts 352°
2026-05-04 22:09 50.09225 19.74562 1597 ft 89 kts
2026-05-04 22:10 50.09645 19.75161 1723 ft 87 kts 68°
2026-05-04 22:10 50.10148 19.75717 1856 ft 91 kts 38°
2026-05-04 22:10 50.10625 19.76418 1889 ft 101 kts 28°
2026-05-04 22:10 50.11170 19.77227 1868 ft 118 kts 27°
2026-05-04 22:11 50.11995 19.77251 1897 ft 125 kts 358°
2026-05-04 22:11 50.12750 19.78046 1887 ft 143 kts 63°
2026-05-04 22:11 50.12776 19.79510 1884 ft 135 kts 122°
2026-05-04 22:11 50.12011 19.79806 1865 ft 123 kts 196°
2026-05-04 22:12 50.11211 19.79436 1864 ft 118 kts 210°
2026-05-04 22:12 50.10472 19.78930 1884 ft 118 kts 212°
2026-05-04 22:12 50.10112 19.77859 1788 ft 122 kts 273°
2026-05-04 22:12 50.10616 19.76818 1794 ft 130 kts 333°
2026-05-04 22:13 50.11506 19.76890 1796 ft 134 kts 24°
2026-05-04 22:13 50.12055 19.78002 1803 ft 136 kts 84°
2026-05-04 22:13 50.11788 19.79341 1799 ft 128 kts 143°
2026-05-04 22:13 50.11004 19.79720 1788 ft 123 kts 190°
2026-05-04 22:14 50.10107 19.79551 1650 ft 132 kts 189°
2026-05-04 22:14 50.09374 19.80195 1417 ft 138 kts 100°
2026-05-04 22:14 50.09513 19.81647 1209 ft 131 kts 80°
2026-05-04 22:14 50.09479 19.82954 1098 ft 121 kts 140°
2026-05-04 22:15 50.08705 19.83008 1047 ft 104 kts 203°
2026-05-04 22:15 50.08310 19.82224 995 ft 95 kts 256°
2026-05-04 22:15 50.08152 19.81211 938 ft 99 kts 261°
2026-05-04 22:15 50.07998 19.80109 819 ft 111 kts 260°
2026-05-04 22:16 50.07838 19.78939 792 ft 107 kts 261°
2026-05-04 22:16 50.07677 19.77866 1003 ft 103 kts 259°
2026-05-04 22:16 50.07515 19.76761 1130 ft 108 kts 261°
2026-05-04 22:16 50.07366 19.75600 1258 ft 110 kts 261°
2026-05-04 22:17 50.07247 19.74444 1382 ft 107 kts 279°
2026-05-04 22:17 50.07751 19.73692 1517 ft 111 kts 348°
2026-05-04 22:17 50.08509 19.73613 1671 ft 111 kts
2026-05-04 22:17 50.09223 19.74143 1784 ft 123 kts 53°
2026-05-04 22:18 50.09418 19.75353 1946 ft 114 kts 85°
2026-05-04 22:18 50.09497 19.76744 1824 ft 135 kts 92°
2026-05-04 22:18 50.09545 19.78235 1788 ft 139 kts 90°
2026-05-04 22:18 50.09617 19.79740 1803 ft 145 kts 90°
2026-05-04 22:19 50.09659 19.81329 1643 ft 147 kts 94°
2026-05-04 22:19 50.09674 19.82891 1473 ft 139 kts 94°
2026-05-04 22:19 50.09421 19.84172 1292 ft 127 kts 80°
2026-05-04 22:19 50.09026 19.84996 1324 ft 105 kts 188°
2026-05-04 22:20 50.08590 19.84196 1204 ft 109 kts 259°
2026-05-04 22:20 50.08404 19.83069 1121 ft 105 kts 259°
2026-05-04 22:20 50.08261 19.81966 1068 ft 102 kts 262°
2026-05-04 22:20 50.08117 19.80917 939 ft 100 kts 260°
2026-05-04 22:21 50.07966 19.79862 813 ft 97 kts 260°
2026-05-04 22:21 50.07830 19.78891 814 ft 89 kts 258°
2026-05-04 22:21 50.07703 19.77979 955 ft 86 kts 261°
2026-05-04 22:21 50.07652 19.77070 1068 ft 86 kts 298°
2026-05-04 22:22 50.08183 19.76763 1187 ft 92 kts 359°
2026-05-04 22:22 50.08848 19.76768 1318 ft 100 kts 13°
2026-05-04 22:22 50.09267 19.77645 1458 ft 110 kts 83°
2026-05-04 22:22 50.09257 19.78881 1616 ft 116 kts 96°
2026-05-04 22:23 50.09220 19.80170 1745 ft 123 kts 97°
2026-05-04 22:23 50.09205 19.81546 1804 ft 133 kts 96°
2026-05-04 22:23 50.09191 19.83013 1808 ft 138 kts 95°
2026-05-04 22:23 50.09102 19.84504 1787 ft 138 kts 118°
2026-05-04 22:24 50.08581 19.84787 1604 ft 114 kts 268°
2026-05-04 22:24 50.08467 19.83506 1321 ft 118 kts 260°
2026-05-04 22:24 50.08302 19.82364 1181 ft 98 kts 258°
2026-05-04 22:24 50.08162 19.81373 1036 ft 89 kts 261°
2026-05-04 22:25 50.08043 19.80427 885 ft 88 kts 261°
2026-05-04 22:25 50.07914 19.79503 788 ft 84 kts 260°
2026-05-04 22:25 50.07790 19.78618 837 ft 89 kts 258°
2026-05-04 22:25 50.07644 19.77659 976 ft 96 kts 258°
2026-05-04 22:26 50.07491 19.76610 1104 ft 103 kts 259°
2026-05-04 22:26 50.07297 19.75512 1229 ft 109 kts 242°
2026-05-04 22:26 50.06630 19.75054 1346 ft 115 kts 172°
2026-05-04 22:26 50.05877 19.75492 1465 ft 114 kts 163°
2026-05-04 22:27 50.05423 19.76470 1576 ft 120 kts 94°
2026-05-04 22:27 50.05592 19.77730 1703 ft 121 kts 77°
2026-05-04 22:27 50.05871 19.78986 1791 ft 125 kts 70°
2026-05-04 22:27 50.06161 19.80309 1799 ft 135 kts 72°
2026-05-04 22:28 50.06505 19.81682 1801 ft 138 kts 70°
2026-05-04 22:28 50.06851 19.83104 1803 ft 140 kts 71°
2026-05-04 22:28 50.07290 19.84401 1681 ft 133 kts 30°
2026-05-04 22:28 50.08121 19.84293 1521 ft 118 kts 339°
2026-05-04 22:29 50.08477 19.83358 1268 ft 109 kts 258°
2026-05-04 22:29 50.08302 19.82254 1151 ft 101 kts 258°
2026-05-04 22:29 50.08154 19.81210 1004 ft 95 kts 259°
2026-05-04 22:29 50.08015 19.80239 859 ft 91 kts 259°
2026-05-04 22:30 50.07889 19.79308 785 ft 83 kts 258°
2026-05-04 22:30 50.07763 19.78419 859 ft 84 kts 257°
2026-05-04 22:30 50.07614 19.77547 1021 ft 85 kts 257°
2026-05-04 22:30 50.07483 19.76551 1104 ft 99 kts 257°
2026-05-04 22:31 50.07046 19.75767 1218 ft 109 kts 194°
2026-05-04 22:31 50.06277 19.75842 1362 ft 111 kts 178°
2026-05-04 22:31 50.05574 19.76360 1466 ft 121 kts 127°
2026-05-04 22:31 50.05443 19.77643 1596 ft 122 kts 86°
2026-05-04 22:32 50.05663 19.78902 1715 ft 121 kts 73°
2026-05-04 22:32 50.05891 19.80163 1771 ft 127 kts 76°
2026-05-04 22:32 50.06180 19.81505 1774 ft 134 kts 73°
2026-05-04 22:32 50.06513 19.82943 1720 ft 147 kts 56°
2026-05-04 22:33 50.07291 19.83069 1366 ft 117 kts 318°
2026-05-04 22:33 50.07890 19.82451 1194 ft 93 kts 312°
2026-05-04 22:33 50.08181 19.81634 1039 ft 85 kts 268°
2026-05-04 22:33 50.08087 19.80766 935 ft 80 kts 260°
2026-05-04 22:34 50.07978 19.79951 830 ft 71 kts 259°
2026-05-04 22:34 50.07878 19.79236 784 ft 64 kts 258°
2026-05-04 22:34 50.07773 19.78535 830 ft 73 kts 257°
2026-05-04 22:34 50.07633 19.77680 909 ft 90 kts 259°
2026-05-04 22:35 50.07492 19.76689 1025 ft 97 kts 255°
2026-05-04 22:35 50.06975 19.76055 1129 ft 106 kts 184°
2026-05-04 22:35 50.06232 19.76278 1258 ft 113 kts 168°
2026-05-04 22:35 50.05735 19.77185 1363 ft 118 kts 95°
2026-05-04 22:36 50.05810 19.78458 1497 ft 120 kts 84°
2026-05-04 22:36 50.05954 19.79757 1655 ft 120 kts 79°
2026-05-04 22:36 50.06144 19.81038 1753 ft 122 kts 80°
2026-05-04 22:36 50.06354 19.82402 1772 ft 137 kts 80°
2026-05-04 22:37 50.06821 19.83650 1679 ft 132 kts 30°
2026-05-04 22:37 50.07654 19.83695 1613 ft 123 kts 339°
2026-05-04 22:37 50.08236 19.82865 1453 ft 118 kts 281°
2026-05-04 22:37 50.08194 19.81586 1069 ft 113 kts 258°
2026-05-04 22:38 50.08060 19.80537 903 ft 81 kts 259°
2026-05-04 22:38 50.07948 19.79733 795 ft 73 kts 258°
2026-05-04 22:38 50.07858 19.79121 784 ft 30 kts 239°
2026-05-04 22:38 50.07718 19.79101 784 ft 18 kts 169°
2026-05-04 22:39 50.07617 19.79165 784 ft 14 kts 95°
2026-05-04 22:39 50.07631 19.79279 784 ft 9 kts 78°
2026-05-04 22:39 50.07646 19.79385 784 ft 13 kts 76°
2026-05-04 22:39 50.07670 19.79561 786 ft 18 kts 78°
2026-05-04 22:40 50.07696 19.79746 783 ft 18 kts 77°
2026-05-04 22:40 50.07665 19.79882 784 ft 16 kts 166°
2026-05-04 22:40 50.07614 19.79984 784 ft 16 kts 79°
2026-05-04 22:40 50.07635 19.80150 784 ft 11 kts 77°
2026-05-04 22:41 50.07674 19.80171 784 ft 6 kts 348°
2026-05-04 22:41 50.07706 19.80161 784 ft 0 kts 347°